Location: Arborea
(39.7744°N, 8.5819°E)
Time: 09:13:21
(UTC+00:00)

Cosmos 332 Rocket - Pass Details

Date: 02 June 2022
Orbit: 681 x 703 km, 74.0° (Epoch: 02 July)

Event Time Altitude Azimuth Distance (km) Brightness Sun altitude
Exits shadow 00:11:25 26° 292° (WNW) 1,318 5.2 -27.1°
Maximum altitude 00:11:42 27° 298° (WNW) 1,313 5.3 -27.1°
Drops below altitude 10° 00:15:44 10° 355° (N) 2,130 7.2 -26.9°
Sets 00:18:23 0° 8° (N) 3,051 8.4 -26.8°
